Content
SEND FEEDBACK

Daily
Averages
Monthly
Summary
United States of America

HAMILTON, KANSAS


Home > North America > United States > Kansas
Elevation: 1430 feet     Latitude: 38 01N     Longitude: 096 19W

WEATHER
 
SELECT A DAY
Number of Records: 197,182;   Date Range: 1/1/95 - 7/20/14
 
SHARE

PRINT THIS DATA

[ ← Previous Day ]
WEATHER ALMANAC - JANUARY 30, 2013
[ Next Day → ]
[ °C ]   °F
Weather ElementAverageHighLow
Temperature26.9 °F33.8 °F (12:33 am)18 °F (10:53 pm)
Dewpoint21.5 °F32 °F (12:33 am)14 °F (9:53 pm)
Humidity80.5 %96 % (12:53 am)66 % (1:53 pm)
Barometer29.82 in30.04 in (9:53 pm)29.57 in (1:30 am)
Wind Speed17.6 mph28.8 mph (8:53 am)
Wind Gust39.1 mph (6:29 am)
Weather ElementAverage
Visibility6.1 mi
Wind DirectionWNW (307.3 °)

Weather ElementTotal
Precipitation0.01 in
Heating Degree Days39.1 (Base 65)
Averaged from 41 records on January 30, 2013
WEATHER CONDITIONS BREAKOUT
WIND DIRECTION BREAKOUT
WEATHER BY HOUR - JANUARY 30, 2013
[ °C ]   °F
Local TimeTemperatureDewpointHumidityBarometerVisibilityWind DirectionWind SpeedGust SpeedPrecipitationEventsConditions
12:33 AM33.8 °F32.0 °F93 %29.58 in2.0 miNW (310°)8.1 mph0.00 inOvercast
12:53 AM33.1 °F32.0 °F96 %29.61 in2.0 miWNW (300°)11.5 mph0.00 inMist
1:30 AM33.8 °F32.0 °F93 %29.57 in2.5 miNW (320°)12.7 mph18.4 mphMist
1:38 AM33.8 °F30.2 °F87 %29.57 in5.0 miNNW (330°)17.3 mph21.9 mphMist
2:53 AM33.1 °F30.0 °F89 %29.64 in7.0 miNNW (330°)17.3 mph0.01 in
3:53 AM32.0 °F28.9 °F88 %29.65 in3.0 miNNW (330°)23.0 mph31.1 mph0.00 inSnowLight Snow
4:42 AM32.0 °F28.4 °F87 %29.64 in5.0 miNNW (330°)18.4 mph32.2 mph0.00 inSnowLight Snow
4:53 AM30.9 °F28.0 °F89 %29.68 inNNW (340°)23.0 mph31.1 mph0.00 inSnowLight Snow
5:06 AM30.2 °F28.4 °F93 %29.65 in1.8 miNNW (330°)18.4 mph25.3 mph0.00 inSnowLight Snow
5:14 AM30.2 °F28.4 °F93 %29.66 in1.0 miNW (320°)20.7 mph28.8 mph0.00 inSnowLight Snow
5:17 AM30.2 °F28.4 °F93 %29.66 in1.2 miNNW (330°)21.9 mph28.8 mph0.00 inSnowLight Snow
5:38 AM30.2 °F26.6 °F86 %29.68 in2.0 miNNW (330°)24.2 mph34.5 mph0.00 inSnowLight Snow
5:49 AM28.4 °F26.6 °F93 %29.69 in1.5 miNW (320°)20.7 mph32.2 mph0.00 inSnowLight Snow
5:53 AM28.9 °F27.0 °F92 %29.73 in1.5 miNW (320°)19.6 mph33.4 mph0.00 inSnowLight Snow
6:29 AM26.6 °F23.0 °F86 %29.74 in2.0 miNW (320°)26.5 mph39.1 mph0.00 inSnowLight Snow
6:53 AM26.1 °F21.9 °F84 %29.79 in4.0 miNW (320°)23.0 mph28.8 mph0.00 inSnowLight Snow
7:38 AM24.8 °F21.2 °F86 %29.80 in1.8 miNW (320°)25.3 mph34.5 mph0.00 inSnowLight Snow
7:42 AM24.8 °F21.2 °F86 %29.80 in1.2 miNNW (330°)23.0 mph34.5 mph0.00 inSnowLight Snow
8:05 AM24.8 °F19.4 °F80 %29.81 in1.2 miNNW (330°)21.9 mph33.4 mph0.00 inSnowLight Snow
8:13 AM24.8 °F19.4 °F80 %29.82 in2.0 miNW (320°)19.6 mph27.6 mph0.00 inSnowLight Snow
8:27 AM24.8 °F19.4 °F80 %29.82 in5.0 miNW (320°)19.6 mph33.4 mph0.00 inOvercast
8:53 AM24.1 °F18.0 °F77 %29.88 in5.0 miNW (320°)28.8 mph34.5 mph0.00 in
9:08 AM24.8 °F17.6 °F74 %29.85 in9.0 miNW (320°)20.7 mph32.2 mph0.00 inOvercast
9:46 AM24.8 °F17.6 °F74 %29.87 in10.0 miNW (320°)20.7 mph38.0 mph0.00 inOvercast
10:25 AM24.8 °F15.8 °F69 %29.90 in10.0 miNW (320°)24.2 mph33.4 mph0.00 inOvercast
10:53 AM24.1 °F16.0 °F71 %29.95 in9.0 miNNW (330°)20.7 mph35.7 mph0.00 inOvercast
11:53 AM25.0 °F16.0 °F69 %29.95 in10.0 miNW (320°)23.0 mph31.1 mphOvercast
12:53 PM25.0 °F17.1 °F72 %29.95 in9.0 miNW (310°)17.3 mph27.6 mph0.00 inOvercast
1:53 PM26.1 °F16.0 °F66 %29.94 in10.0 miNW (310°)20.7 mph29.9 mphOvercast
2:53 PM25.0 °F16.0 °F69 %29.96 in10.0 miWNW (300°)16.1 mph29.9 mphOvercast
3:53 PM26.1 °F16.0 °F66 %29.97 in10.0 miWNW (300°)20.7 mph27.6 mphOvercast
4:53 PM26.1 °F17.1 °F69 %29.94 in10.0 miNW (310°)15.0 mph23.0 mphOvercast
5:53 PM26.1 °F17.1 °F69 %30.00 in10.0 miWNW (290°)11.5 mphOvercast
6:48 PM26.6 °F17.6 °F69 %29.96 in10.0 miWNW (290°)13.8 mph24.2 mphOvercast
6:53 PM27.0 °F18.0 °F69 %30.01 in10.0 miWNW (290°)11.5 mph23.0 mphOvercast
7:34 PM26.6 °F17.6 °F69 %29.97 in10.0 miWNW (290°)12.7 mph18.4 mphOvercast
7:53 PM25.0 °F17.1 °F72 %29.97 in10.0 miWNW (290°)10.4 mphScattered Clouds
8:53 PM21.9 °F16.0 °F78 %30.03 in10.0 miWest (270°)3.5 mphClear
9:53 PM19.9 °F14.0 °F78 %30.04 in10.0 miWSW (250°)4.6 mphClear
10:53 PM18.0 °F14.0 °F84 %30.02 in10.0 miSouth (190°)5.8 mphClear
11:53 PM18.0 °F14.0 °F84 %30.02 in10.0 miSouth (180°)5.8 mphClear
Hourly data recorded from KEMP, located miles away from Hamilton, Kansas







STORIES FROM OUR PARTNERS